Time,TemperatureF,DewpointF,PressureIn,WindDirection,WindDirectionDegrees,WindSpeedMPH,WindSpeedGustMPH,Humidity,HourlyPrecipIn,Conditions,Clouds,dailyrainin,SoftwareType,DateUTC
2013-05-11 00:03:00,56.0,54.0,30.04,South,190,0.0,6.0,92,0.10,,,0.10,,2013-05-11 04:03:00,
2013-05-11 00:12:00,56.0,54.0,30.04,South,190,0.0,6.0,92,0.10,,,0.10,,2013-05-11 04:12:00,
2013-05-11 00:23:00,56.0,54.0,30.04,WNW,282,1.0,6.0,93,0.07,,,0.10,,2013-05-11 04:23:00,
2013-05-11 00:33:00,56.0,54.0,30.03,West,262,0.0,4.0,93,0.02,,,0.10,,2013-05-11 04:33:00,
2013-05-11 00:43:00,56.0,54.0,30.03,ESE,109,0.0,2.0,94,0.00,,,0.10,,2013-05-11 04:43:00,
2013-05-11 00:52:00,56.0,54.0,30.03,ESE,109,0.0,2.0,94,0.00,,,0.10,,2013-05-11 04:52:00,
2013-05-11 01:02:00,56.0,54.0,30.03,ESE,109,0.0,0.0,94,0.00,,,0.10,,2013-05-11 05:02:00,
2013-05-11 01:12:00,56.0,54.0,30.03,ESE,109,0.0,0.0,94,0.00,,,0.10,,2013-05-11 05:12:00,
2013-05-11 01:22:00,56.0,54.0,30.03,ESE,109,0.0,0.0,94,0.00,,,0.10,,2013-05-11 05:22:00,
2013-05-11 01:32:00,56.0,54.0,30.03,ESE,109,0.0,0.0,94,0.00,,,0.10,,2013-05-11 05:32:00,
2013-05-11 01:42:00,56.0,54.0,30.03,ESE,109,0.0,0.0,94,0.00,,,0.10,,2013-05-11 05:42:00,
2013-05-11 01:52:00,56.0,54.0,30.03,ESE,109,0.0,0.0,94,0.00,,,0.10,,2013-05-11 05:52:00,
2013-05-11 02:02:00,56.0,54.0,30.02,ESE,109,0.0,0.0,94,0.00,,,0.10,,2013-05-11 06:02:00,
2013-05-11 02:12:00,56.0,54.0,30.02,ESE,109,0.0,0.0,94,0.00,,,0.10,,2013-05-11 06:12:00,
2013-05-11 02:22:00,55.0,54.0,30.01,ESE,109,0.0,0.0,95,0.00,,,0.10,,2013-05-11 06:22:00,
2013-05-11 02:32:00,55.0,54.0,30.01,ESE,109,0.0,0.0,95,0.00,,,0.10,,2013-05-11 06:32:00,
2013-05-11 02:42:00,55.0,54.0,30.01,ESE,109,0.0,1.0,95,0.00,,,0.10,,2013-05-11 06:42:00,
2013-05-11 02:52:00,55.0,54.0,30.01,ESE,109,0.0,1.0,95,0.00,,,0.10,,2013-05-11 06:52:00,
2013-05-11 03:02:00,55.0,54.0,30.00,ESE,109,0.0,2.0,95,0.00,,,0.10,,2013-05-11 07:02:00,
2013-05-11 03:12:00,55.0,54.0,30.00,ESE,109,0.0,2.0,95,0.00,,,0.10,,2013-05-11 07:12:00,
2013-05-11 03:21:00,55.0,54.0,29.99,ESE,109,0.0,0.0,95,0.00,,,0.10,,2013-05-11 07:21:00,
2013-05-11 03:32:00,55.0,54.0,30.00,ESE,109,0.0,0.0,95,0.00,,,0.10,,2013-05-11 07:32:00,
2013-05-11 03:42:00,55.0,54.0,30.00,ESE,109,0.0,0.0,95,0.00,,,0.10,,2013-05-11 07:42:00,
2013-05-11 03:52:00,55.0,54.0,30.00,South,174,0.0,5.0,96,0.00,,,0.10,,2013-05-11 07:52:00,
2013-05-11 04:02:00,55.0,54.0,29.99,SSE,155,0.0,2.0,96,0.00,,,0.10,,2013-05-11 08:02:00,
2013-05-11 04:12:00,55.0,54.0,29.99,SSE,155,0.0,2.0,96,0.00,,,0.10,,2013-05-11 08:12:00,
2013-05-11 04:21:00,55.0,54.0,29.99,SSE,148,0.0,3.0,96,0.00,,,0.10,,2013-05-11 08:21:00,
2013-05-11 04:32:00,55.0,54.0,29.99,SSE,148,0.0,0.0,96,0.00,,,0.10,,2013-05-11 08:32:00,
2013-05-11 04:42:00,55.0,54.0,29.99,SSE,148,0.0,2.0,96,0.00,,,0.10,,2013-05-11 08:42:00,
2013-05-11 04:52:00,55.0,54.0,29.99,SSE,148,0.0,2.0,96,0.00,,,0.10,,2013-05-11 08:52:00,
2013-05-11 05:01:00,55.0,54.0,29.98,SSE,148,0.0,0.0,96,0.00,,,0.10,,2013-05-11 09:01:00,
2013-05-11 05:11:00,55.0,54.0,29.98,SSE,148,0.0,0.0,96,0.00,,,0.10,,2013-05-11 09:11:00,
2013-05-11 05:21:00,55.0,54.0,29.99,SSE,148,0.0,1.0,96,0.00,,,0.10,,2013-05-11 09:21:00,
2013-05-11 05:32:00,55.0,54.0,29.98,SSE,148,0.0,1.0,96,0.00,,,0.10,,2013-05-11 09:32:00,
2013-05-11 05:42:00,55.0,54.0,29.98,SSE,148,0.0,1.0,96,0.00,,,0.10,,2013-05-11 09:42:00,
2013-05-11 05:53:00,55.0,54.0,29.98,SSE,148,0.0,2.0,95,0.00,,,0.10,,2013-05-11 09:53:00,
2013-05-11 06:03:00,54.0,53.0,29.98,SSE,148,0.0,0.0,96,0.00,,,0.10,,2013-05-11 10:03:00,
2013-05-11 06:12:00,54.0,53.0,29.98,SSE,148,0.0,0.0,96,0.00,,,0.10,,2013-05-11 10:12:00,
2013-05-11 06:22:00,54.0,53.0,29.98,SSE,148,0.0,0.0,96,0.00,,,0.10,,2013-05-11 10:22:00,
2013-05-11 06:33:00,54.0,53.0,29.98,SSE,148,0.0,0.0,96,0.00,,,0.10,,2013-05-11 10:33:00,
2013-05-11 06:42:00,54.0,53.0,29.98,SSE,148,0.0,0.0,96,0.00,,,0.10,,2013-05-11 10:42:00,
2013-05-11 06:53:00,54.0,53.0,29.98,SSE,148,0.0,3.0,96,0.00,,,0.10,,2013-05-11 10:53:00,
2013-05-11 07:02:00,54.0,53.0,29.97,SSE,148,0.0,1.0,96,0.00,,,0.10,,2013-05-11 11:02:00,
2013-05-11 07:12:00,54.0,53.0,29.97,SSE,148,0.0,1.0,96,0.00,,,0.10,,2013-05-11 11:12:00,
2013-05-11 07:22:00,54.0,53.0,29.97,SSE,148,0.0,1.0,96,0.00,,,0.10,,2013-05-11 11:22:00,
2013-05-11 07:32:00,54.0,53.0,29.98,NW,309,0.0,0.0,97,0.00,,,0.10,,2013-05-11 11:32:00,
2013-05-11 07:42:00,54.0,53.0,29.98,NW,309,0.0,0.0,97,0.00,,,0.10,,2013-05-11 11:42:00,
2013-05-11 07:52:00,54.0,53.0,29.98,SE,124,0.0,2.0,97,0.00,,,0.10,,2013-05-11 11:52:00,
2013-05-11 08:01:00,55.0,54.0,29.99,East,96,0.0,5.0,97,0.00,,,0.10,,2013-05-11 12:01:00,
2013-05-11 08:11:00,55.0,54.0,29.99,East,96,0.0,5.0,97,0.00,,,0.10,,2013-05-11 12:11:00,
2013-05-11 08:22:00,55.0,54.0,29.99,East,96,0.0,1.0,97,0.00,,,0.10,,2013-05-11 12:22:00,
2013-05-11 08:32:00,55.0,54.0,29.98,East,95,0.0,0.0,97,0.00,,,0.10,,2013-05-11 12:32:00,
2013-05-11 08:42:00,55.0,54.0,29.98,East,95,0.0,0.0,97,0.00,,,0.10,,2013-05-11 12:42:00,
2013-05-11 08:52:00,55.0,54.0,29.98,ESE,123,0.0,1.0,97,0.00,,,0.10,,2013-05-11 12:52:00,
2013-05-11 09:02:00,55.0,54.0,29.98,ESE,123,0.0,1.0,97,0.00,,,0.10,,2013-05-11 13:02:00,
2013-05-11 09:11:00,55.0,54.0,29.98,ESE,123,0.0,1.0,97,0.00,,,0.10,,2013-05-11 13:11:00,
2013-05-11 09:21:00,56.0,55.0,29.98,ESE,104,0.0,2.0,97,0.00,,,0.10,,2013-05-11 13:21:00,
2013-05-11 09:32:00,57.0,56.0,29.99,ESE,116,0.0,6.0,97,0.00,,,0.10,,2013-05-11 13:32:00,
2013-05-11 09:42:00,57.0,56.0,29.99,ESE,116,0.0,6.0,97,0.00,,,0.10,,2013-05-11 13:42:00,
2013-05-11 09:52:00,57.0,56.0,29.99,ESE,116,0.0,6.0,97,0.00,,,0.10,,2013-05-11 13:52:00,
2013-05-11 10:02:00,59.0,57.0,29.99,ESE,109,0.0,6.0,94,0.00,,,0.10,,2013-05-11 14:02:00,
2013-05-11 10:11:00,59.0,57.0,29.99,ESE,109,0.0,6.0,94,0.00,,,0.10,,2013-05-11 14:11:00,
2013-05-11 10:21:00,60.0,59.0,29.99,East,86,0.0,1.0,95,0.00,,,0.10,,2013-05-11 14:21:00,
2013-05-11 10:32:00,60.0,57.0,29.98,ESE,122,0.0,5.0,89,0.00,,,0.10,,2013-05-11 14:32:00,
2013-05-11 10:42:00,60.0,57.0,29.98,ESE,122,0.0,5.0,89,0.00,,,0.10,,2013-05-11 14:42:00,
2013-05-11 10:52:00,61.0,58.0,29.98,ESE,123,0.0,3.0,89,0.00,,,0.10,,2013-05-11 14:52:00,
2013-05-11 11:01:00,61.0,57.0,29.97,WSW,252,0.0,4.0,86,0.00,,,0.10,,2013-05-11 15:01:00,
2013-05-11 11:11:00,61.0,57.0,29.97,WSW,252,0.0,4.0,86,0.00,,,0.10,,2013-05-11 15:11:00,
2013-05-11 11:21:00,62.0,57.0,29.98,SSW,208,2.0,6.0,85,0.00,,,0.10,,2013-05-11 15:21:00,
2013-05-11 11:32:00,62.0,58.0,29.98,SSW,208,0.0,2.0,87,0.00,,,0.10,,2013-05-11 15:32:00,
2013-05-11 11:43:00,62.0,58.0,29.98,SSW,208,0.0,2.0,87,0.00,,,0.10,,2013-05-11 15:43:00,
2013-05-11 11:53:00,63.0,58.0,29.98,ESE,118,1.0,5.0,83,0.00,,,0.10,,2013-05-11 15:53:00,
2013-05-11 12:03:00,63.0,58.0,29.98,SW,227,1.0,5.0,84,0.00,,,0.10,,2013-05-11 16:03:00,
2013-05-11 12:12:00,63.0,58.0,29.98,SW,227,1.0,5.0,84,0.00,,,0.10,,2013-05-11 16:12:00,
2013-05-11 12:23:00,62.0,59.0,29.98,WSW,251,0.0,6.0,89,0.01,,,0.11,,2013-05-11 16:23:00,
2013-05-11 12:33:00,62.0,57.0,29.98,West,272,1.0,6.0,85,0.01,,,0.11,,2013-05-11 16:33:00,
2013-05-11 12:42:00,62.0,57.0,29.98,West,272,1.0,6.0,85,0.01,,,0.11,,2013-05-11 16:42:00,
2013-05-11 12:53:00,63.0,58.0,29.98,WSW,239,2.0,9.0,84,0.01,,,0.11,,2013-05-11 16:53:00,
2013-05-11 13:02:00,64.0,59.0,29.98,SW,234,1.0,8.0,84,0.01,,,0.11,,2013-05-11 17:02:00,
2013-05-11 13:12:00,64.0,59.0,29.98,SW,234,1.0,8.0,84,0.01,,,0.11,,2013-05-11 17:12:00,
2013-05-11 13:22:00,66.0,60.0,29.96,SSW,196,1.0,5.0,81,0.00,,,0.11,,2013-05-11 17:22:00,
2013-05-11 13:32:00,67.0,61.0,29.96,SSE,148,0.0,2.0,80,0.00,,,0.11,,2013-05-11 17:32:00,
2013-05-11 13:42:00,67.0,61.0,29.96,SSE,148,0.0,2.0,80,0.00,,,0.11,,2013-05-11 17:42:00,
2013-05-11 13:52:00,68.0,59.0,29.96,SSE,166,4.0,9.0,74,0.00,,,0.11,,2013-05-11 17:52:00,
2013-05-11 14:01:00,68.0,57.0,29.95,NNE,14,0.0,9.0,69,0.00,,,0.11,,2013-05-11 18:01:00,
2013-05-11 14:12:00,68.0,57.0,29.95,NNE,14,0.0,9.0,69,0.00,,,0.11,,2013-05-11 18:12:00,
2013-05-11 14:21:00,69.0,60.0,29.95,SW,227,2.0,10.0,72,0.00,,,0.11,,2013-05-11 18:21:00,
2013-05-11 14:32:00,69.0,61.0,29.94,SSE,165,0.0,8.0,75,0.00,,,0.11,,2013-05-11 18:32:00,
2013-05-11 14:42:00,69.0,61.0,29.94,SSE,165,0.0,8.0,75,0.00,,,0.11,,2013-05-11 18:42:00,
2013-05-11 14:52:00,69.0,57.0,29.94,NNW,340,6.0,8.0,66,0.00,,,0.11,,2013-05-11 18:52:00,
2013-05-11 15:02:00,69.0,58.0,29.94,SSE,153,2.0,10.0,67,0.00,,,0.11,,2013-05-11 19:02:00,
2013-05-11 15:11:00,69.0,58.0,29.94,SSE,153,2.0,10.0,67,0.00,,,0.11,,2013-05-11 19:11:00,
2013-05-11 15:21:00,69.0,59.0,29.94,SSE,148,2.0,8.0,71,0.00,,,0.11,,2013-05-11 19:21:00,
2013-05-11 15:32:00,69.0,60.0,29.94,South,169,0.0,6.0,72,0.00,,,0.11,,2013-05-11 19:32:00,
2013-05-11 15:42:00,69.0,60.0,29.94,South,169,0.0,6.0,72,0.00,,,0.11,,2013-05-11 19:42:00,
2013-05-11 15:53:00,69.0,60.0,29.92,NE,37,0.0,3.0,74,0.00,,,0.11,,2013-05-11 19:53:00,
2013-05-11 16:02:00,68.0,58.0,29.92,WNW,299,1.0,7.0,70,0.00,,,0.11,,2013-05-11 20:02:00,
2013-05-11 16:12:00,68.0,58.0,29.92,WNW,299,1.0,7.0,70,0.00,,,0.11,,2013-05-11 20:12:00,
2013-05-11 16:22:00,69.0,60.0,29.91,East,84,0.0,5.0,73,0.00,,,0.11,,2013-05-11 20:22:00,
2013-05-11 16:32:00,69.0,57.0,29.91,WNW,287,1.0,4.0,66,0.00,,,0.11,,2013-05-11 20:32:00,
2013-05-11 16:42:00,69.0,57.0,29.91,WNW,287,1.0,4.0,66,0.00,,,0.11,,2013-05-11 20:42:00,
2013-05-11 16:52:00,68.0,57.0,29.91,SSE,163,2.0,8.0,68,0.00,,,0.11,,2013-05-11 20:52:00,
2013-05-11 17:02:00,66.0,58.0,29.92,WNW,295,4.0,10.0,75,0.00,,,0.11,,2013-05-11 21:02:00,
2013-05-11 17:11:00,66.0,58.0,29.92,WNW,295,4.0,10.0,75,0.00,,,0.11,,2013-05-11 21:11:00,
2013-05-11 17:22:00,61.0,53.0,29.93,NW,306,6.0,11.0,76,0.01,,,0.12,,2013-05-11 21:22:00,
2013-05-11 17:33:00,58.0,54.0,29.94,WSW,255,4.0,12.0,87,0.02,,,0.13,,2013-05-11 21:33:00,
2013-05-11 17:43:00,58.0,54.0,29.94,WSW,255,4.0,12.0,87,0.02,,,0.13,,2013-05-11 21:43:00,
2013-05-11 17:53:00,57.0,54.0,29.94,SW,233,3.0,13.0,89,0.04,,,0.15,,2013-05-11 21:53:00,
2013-05-11 18:02:00,56.0,53.0,29.95,SW,219,1.0,10.0,91,0.07,,,0.18,,2013-05-11 22:02:00,
2013-05-11 18:13:00,56.0,53.0,29.95,SW,219,1.0,10.0,91,0.07,,,0.18,,2013-05-11 22:13:00,
2013-05-11 18:23:00,56.0,54.0,29.95,SW,224,3.0,8.0,92,0.09,,,0.21,,2013-05-11 22:23:00,
2013-05-11 18:33:00,56.0,54.0,29.96,SSW,194,0.0,5.0,92,0.10,,,0.23,,2013-05-11 22:33:00,
2013-05-11 18:42:00,56.0,54.0,29.96,SSW,194,0.0,5.0,92,0.10,,,0.23,,2013-05-11 22:42:00,
2013-05-11 18:52:00,56.0,54.0,29.96,South,181,1.0,4.0,93,0.09,,,0.24,,2013-05-11 22:52:00,
2013-05-11 19:02:00,56.0,54.0,29.95,South,169,0.0,2.0,93,0.08,,,0.26,,2013-05-11 23:02:00,
2013-05-11 19:12:00,56.0,54.0,29.95,South,169,0.0,2.0,93,0.08,,,0.26,,2013-05-11 23:12:00,
2013-05-11 19:22:00,56.0,54.0,29.95,South,188,0.0,5.0,94,0.05,,,0.26,,2013-05-11 23:22:00,
2013-05-11 19:32:00,56.0,55.0,29.94,South,188,0.0,1.0,95,0.04,,,0.27,,2013-05-11 23:32:00,
2013-05-11 19:42:00,56.0,55.0,29.94,South,188,0.0,1.0,95,0.04,,,0.27,,2013-05-11 23:42:00,
2013-05-11 19:52:00,56.0,55.0,29.94,South,188,0.0,0.0,95,0.03,,,0.27,,2013-05-11 23:52:00,
2013-05-11 20:01:00,56.0,55.0,29.95,West,267,2.0,5.0,95,0.01,,,0.27,,2013-05-12 00:01:00,
2013-05-11 20:12:00,56.0,55.0,29.95,West,267,2.0,5.0,95,0.01,,,0.27,,2013-05-12 00:12:00,
2013-05-11 20:21:00,56.0,55.0,29.94,West,262,1.0,6.0,95,0.02,,,0.28,,2013-05-12 00:21:00,
2013-05-11 20:32:00,56.0,54.0,29.95,West,269,3.0,8.0,94,0.03,,,0.30,,2013-05-12 00:32:00,
2013-05-11 20:42:00,56.0,54.0,29.95,West,269,3.0,8.0,94,0.03,,,0.30,,2013-05-12 00:42:00,
2013-05-11 20:52:00,55.0,53.0,29.95,WSW,252,4.0,9.0,94,0.06,,,0.33,,2013-05-12 00:52:00,
2013-05-11 21:01:00,55.0,54.0,29.94,West,276,2.0,4.0,95,0.08,,,0.35,,2013-05-12 01:01:00,
2013-05-11 21:11:00,55.0,54.0,29.94,West,276,2.0,4.0,95,0.08,,,0.35,,2013-05-12 01:11:00,
2013-05-11 21:21:00,55.0,54.0,29.94,North,359,0.0,3.0,95,0.08,,,0.36,,2013-05-12 01:21:00,
2013-05-11 21:32:00,55.0,54.0,29.94,NNE,25,0.0,0.0,95,0.06,,,0.36,,2013-05-12 01:32:00,
2013-05-11 21:42:00,55.0,54.0,29.94,NNE,25,0.0,0.0,95,0.06,,,0.36,,2013-05-12 01:42:00,
2013-05-11 21:52:00,55.0,54.0,29.95,WNW,293,0.0,2.0,95,0.03,,,0.36,,2013-05-12 01:52:00,
2013-05-11 22:01:00,55.0,54.0,29.95,SW,215,0.0,4.0,95,0.01,,,0.36,,2013-05-12 02:01:00,
2013-05-11 22:12:00,55.0,54.0,29.95,SW,215,0.0,4.0,95,0.01,,,0.36,,2013-05-12 02:12:00,
2013-05-11 22:22:00,55.0,54.0,29.96,NW,305,2.0,10.0,95,0.00,,,0.36,,2013-05-12 02:22:00,
2013-05-11 22:32:00,55.0,53.0,29.96,WSW,241,4.0,8.0,94,0.00,,,0.36,,2013-05-12 02:32:00,
2013-05-11 22:42:00,55.0,53.0,29.97,NNW,342,1.0,5.0,94,0.00,,,0.36,,2013-05-12 02:42:00,
2013-05-11 22:52:00,55.0,53.0,29.97,NNW,342,1.0,5.0,94,0.00,,,0.36,,2013-05-12 02:52:00,
2013-05-11 23:01:00,55.0,53.0,29.97,WSW,255,1.0,5.0,94,0.00,,,0.36,,2013-05-12 03:01:00,
2013-05-11 23:11:00,55.0,53.0,29.97,WSW,255,1.0,5.0,94,0.00,,,0.36,,2013-05-12 03:11:00,
2013-05-11 23:22:00,55.0,53.0,29.98,WSW,240,1.0,6.0,93,0.00,,,0.33,,2013-05-12 03:22:00,
2013-05-11 23:33:00,55.0,53.0,29.98,WSW,257,1.0,12.0,92,0.00,,,0.33,,2013-05-12 03:33:00,
2013-05-11 23:43:00,55.0,53.0,29.98,WSW,257,1.0,12.0,92,0.00,,,0.33,,2013-05-12 03:43:00,
2013-05-11 23:53:00,55.0,53.0,29.98,West,281,3.0,8.0,92,0.00,,,0.33,,2013-05-12 03:53:00,